www.pogodaiklimat.ru
ПОГОДА в Окленде
Время
и дата
08:53 19.07
09:53 19.07
10:53 19.07
11:53 19.07
12:53 19.07
13:53 19.07
14:53 19.07
15:53 19.07
16:53 19.07
17:53 19.07
18:53 19.07
19:53 19.07
20:53 19.07
21:53 19.07
22:53 19.07
23:53 19.07
00:53 20.07
01:53 20.07
02:53 20.07
03:53 20.07
04:53 20.07
05:53 20.07
06:53 20.07
07:53 20.07
08:53 20.07
09:53 20.07
10:53 20.07
11:53 20.07
12:53 20.07
13:53 20.07
14:53 20.07
15:53 20.07
16:53 20.07
17:53 20.07
18:53 20.07
19:53 20.07
20:53 20.07
21:53 20.07
22:53 20.07
23:53 20.07
00:38 21.07
00:53 21.07
01:53 21.07
02:53 21.07
03:53 21.07
04:53 21.07
05:53 21.07
06:53 21.07
Ветер
(напр.,м/с)
Видим. Явления Облачность Т
(С)
Тd
(С)
f
(%)
Тe
(С)
Тes
(С)
Комфортность P
(гПа)
Po
(гПа)
Тmin
(С)
Tmax
(С)
R
(мм)
R24
(мм)
S
(см)
З 3 14 км ясно +19.4 +15.0 76 +21 +27 комфорт 1016.3 1016.4
З 3 16 км ясно +21.1 +15.6 71 +24 +34 комфорт 1015.8 1015.7 +13.3 +21.1
З 3 16 км ясно +23.3 +13.9 55 +27 +40 душно 1015.7 1015.7
З 4 16 км ясно +27.2 +13.3 42 +29 +42 жарко 1015.3 1015.0
З 5 16 км ясно +27.8 +11.7 37 +29 +40 жарко 1014.8 1014.7
З 6 16 км ясно +27.8 +12.2 38 +29 +37 жарко 1014.2 1014.0
З 6 16 км ясно +26.7 +13.9 45 +29 +36 жарко 1013.8 1013.6
З 6 16 км ясно +25.6 +12.8 45 +27 +32 жарко 1013.2 1013.0 +21.1 +28.9
З 6 16 км ясно +25.0 +12.8 47 +27 +30 жарко 1012.7 1012.6
З 6 16 км ясно +23.3 +13.3 53 +26 +28 жарко 1012.7 1012.6
З 6 16 км ясно +21.1 +13.3 61 +23 +24 комфорт 1013.3 1013.0
З 6 16 км 2/0 7500 m
[Ci]
+19.4 +13.9 70 +21 +21 комфорт 1013.8 1013.6
З 8
{14}
16 км 2/0 7500 m
[Ci]
+17.8 +14.4 80 +17 +17 1014.5 1014.3
СЗ 5 16 км 2/0 6000 m
[Ac]
+17.2 +13.9 81 +17 +17 1014.4 1014.3 +17.2 +25.6
СЗ 5 16 км 2/0 6000 m
[Ac]
+16.7 +14.4 86 +16 +16 1014.2 1014.0
З 3 16 км 2/0 6000 m
[Ac]
+17.2 +14.4 84 +17 +17 1013.9 1013.6
СЗ 3 16 км 2/0 6000 m
[Ac]
+16.1 +13.9 87 +16 +16 1013.8 1013.6
С 2 16 км 2/0 6000 m
[Ac]
+16.1 +13.9 87 +16 +16 1013.5 1013.3
СВ 2 16 км 2/0 6000 m
[Ac]
+15.6 +13.3 86 +15 +15 1013.2 1013.0
СВ 2 16 км 5/0 6000 m
[Ac]
+15.0 +13.3 90 +15 +15 1013.3 1013.3 +15.0 +17.2
С 2 16 км 8/0 6000 m
[Ac]
+15.0 +13.3 90 +15 +15 1013.5 1013.3
С 2 14 км 8/0 4500 m
[Ac]
+16.1 +14.4 90 +16 +16 1013.8 1013.6
С 2 16 км 5/0 4500 m
[Ac Ci]
+18.3 +15.0 81 +19 +20 1014.5 1014.3
штиль 0 16 км 5/0 6600 m
[Ci]
+20.0 +14.4 70 +22 +26 комфорт 1014.8 1014.7
СЗ 3 16 км 2/0 6000 m
[Ac]
+21.1 +14.4 66 +24 +29 комфорт 1014.7 1014.7
СЗ 4 16 км 2/0 3000 m
[Ac]
+21.1 +13.9 63 +24 +30 комфорт 1014.7 1014.7 +15.0 +21.7
З 6 14 км ясно +21.7 +12.8 57 +24 +30 комфорт 1014.6 1014.3
З 7 16 км 2/2 300 м +22.2 +12.8 55 +25 +29 комфорт 1014.6 1014.3
З 7 14 км 2/2 330 м +21.7 +12.8 57 +24 +29 комфорт 1014.2 1014.0
З 6 16 км 2/2 450 м +21.7 +12.8 57 +24 +30 комфорт 1014.2 1014.0
З 6 16 км 2/2 240 м +21.1 +12.8 59 +23 +29 комфорт 1013.8 1013.6
З 8 16 км 2/2 210 м +20.6 +13.3 63 +23 +24 комфорт 1013.5 1013.3 +20.6 +22.8
З 6 13 км 2/2 270 м +20.0 +13.3 65 +22 +24 комфорт 1013.2 1013.0
З 4 14 км 2/2 270 м +18.9 +13.9 73 +20 +22 1013.4 1013.3
З 4 14 км 2/2 270 м +17.8 +13.9 78 +18 +18 1014.0 1014.0
З 4 16 км 2/2 300 м +16.7 +13.9 84 +16 +16 1014.5 1014.3
З 8
{14}
16 км 5/5 210 м +15.6 +13.9 90 +14 +14 1014.8 1014.7
З 6
{14}
16 км 8/8 90 м +15.0 +13.3 90 +13 +13 1015.1 1015.0 +15.0 +20.6
З 4 16 км 8/8 90 м +15.0 +13.9 93 +14 +14 1015.2 1015.3
З 7
{9}
16 км 10/10 210 м +15.6 +13.9 90 +14 +14 1015.1 1015.0
З 6 16 км 10/10 210 м +15.0 +13.9 93 +13 +13 1015.0
З 6 16 км 10/10 210 м +15.0 +13.9 93 +13 +13 1014.9 1014.7
З 5 16 км 10/10 150 м +15.0 +13.9 93 +13 +13 1014.9 1014.7
З 4 16 км 10/10 240 м +15.0 +13.9 93 +14 +14 1014.6 1014.7
З 5 16 км 10/10 270 м +14.4 +13.3 93 +13 +13 1014.7 1014.7 +14.4 +15.6
З 4 16 км 10/10 210 м +15.0 +13.3 90 +14 +14 1014.9 1014.7
З 6 13 км 8/8 210 м +15.0 +13.3 90 +13 +13 1015.2 1015.0
З 5 16 км 10/10 210 м +15.0 +13.3 90 +14 +14 1015.6 1015.3
Местоположение метеостанции Metro Oakland International Airport: широта 37.7178 долгота -122.2329 высота над уровнем моря 1 м.
В архиве по умолчанию представлена погода в Окленде за последние 1-2 суток. Обновление информации о фактической погоде в базе происходит ежечасно! Архивные данные за месяц целиком и за предыдущие месяцы Вы можете получить, выбрав интересующий диапазон дат из раскрывающегося списка и нажав кнопку "Ввод!".
Внимание! Архив погоды МЕТАР в базе сайта по станциям, не включенным в климатический монитор, хранится не более 60 дней. Нет смысла пытаться выбрать более раннюю дату.
*Определитесь, кто Вы:
Внимание! Время в таблицах - местное (без учета летнего времени). Для получения всемирного времени необходимо вычесть поправку, которая равна -8 ч.
Смотрите также архив погоды в соседних городах и на ближайших метеорологических станциях:
Партнеры нашего сайта:      
Пояснения к столбцам:
  • Ветер - указаны скорость ветра в м/с - средняя за 10 мин, порывы в срок и между сроками (в фигурных скобках) и направление, откуда дует ветер: С - северный,
  • СВ - северо-восточный, В - восточный, ЮВ - юго-восточный, Ю - южный, ЮЗ - юго-западный, З - западный, СЗ - северо-западный.
  • Видимость - горизонтальная дальность видимости в метрах или километрах. При видимости от 1 до 10 км при отсутствии осадков обычно наблюдается дымка, при ухудшении видимости до 1 км и менее - туман. В сухую погоду видимость может ухудшаться дымом, пылью или мглою.
  • Явления - указаны атмосферные явления, наблюдавшиеся в срок или в последний час перед сроком; фигурными скобками обозначены явления, наблюдавшиеся между сроками (за 1-3 часа до срока); квадратными скобками обозначены град или гололедные отложения с указанием их диаметра в мм.
  • Облачность - указаны через наклонную черту общая и нижняя облачность в баллах и высота нижней границы облаков в метрах; квадратными скобками обозначены формы облаков: Ci - перистые, Cs - перисто-слоистые, Cc - перисто-кучевые, Ac - высококучевые, As - высокослоистые, Sc - слоисто-кучевые, Ns - слоисто-дождевые, Cu - кучевые, Cb - кучево-дождевые. Подробнее классификацию облаков см. в Атласе облаков (PDF).
  • T - Температура воздуха - температура, измеренная на высоте 2 м над землей.
  • Td - Температура точки росы - температура, при понижении до которой содержащийся в воздухе водяной пар достигнет насыщения.
  • f - Относительная влажность воздуха - влажноcть воздуха, измеренная на высоте 2 м над землей.
  • Te - Эффективная температура - температура, которую ощущает одетый по сезону человек в тени. Характеристика душности погоды. При расчете учитывается влияние влажности воздуха и скорости ветра на теплоощущения человека.
  • Tes - Эффективная температура на солнце - температура, которую ощущает человек, с поправкой на солнечный нагрев. Характеристика знойности погоды. Зависит от высоты солнца над горизонтом, облачности и скорости ветра. Ночью, в пасмурную погоду, а также при ветре 12 м/с и более поправка равна нулю.
  • P - Атмосферное давление - приведенное к уровню моря атмосферное давление.
  • Po - Атмосферное давление - измеренное на уровне метеостанции атмосферное давление.
  • Tmin - Минимальная температура - минимум температуры воздуха на высоте 2 м над землей.
  • Tmax - Максимальная температура - максимум температуры воздуха на высоте 2 м над землей.
  • R - Количество осадков - Количество выпавших осадков за период времени, мм. При наведении курсора мыши на число - период времени, за который выпало указанное количество осадков.
  • R24 - Количество осадков - Количество выпавших осадков за 24 часа, мм.
  • S - Снежный покров - Высота снежного покрова, см. При наведении курсора мыши на число - состояние снежного покрова и степень покрытия местности в баллах.